www.pogodaiklimat.ru

Погода и климат >> Архив погоды >> Россия >> Якутия >> Юрты


ПОГОДА в Юртах

  • Прогноз погоды в Юртах
  • Монитор погоды в Юртах
  • Климат города

АРХИВ ПОГОДЫ в Юртах

Время (UTC), дата Ветер
(напр.,м/с)
 
Видим.   Явления Облачность Т
(С)
Тd
(С)
f
(%)
Тe
(С)
Тes
(С)
Комфортность P
(гПа)
Po
(гПа)
Тmin
(С)
Tmax
(С)
R
(мм)
R24
(мм)
S
(см)
09 19.09 Ю 1 50 км 10/10 1000 м
[Sc]
+7.2 -0.9 56 +7 +7 1008.4 939.0 +9.3
12 19.09 ЮЗ 1 50 км 10/10 1000 м
[Sc]
+5.6 -2.4 56 +5 +5 1009.1 939.2
15 19.09 штиль 0 50 км 10/10 1000 м
[Sc]
+5.6 -2.4 56 +5 +5 1009.1 939.2
18 19.09 штиль 0 50 км 10/10 1000 м
[Sc]
+5.2 +4.0 92 +4 +4 1009.9 940.0
21 19.09 штиль 0 50 км 10/10 1000 м
[Sc]
+4.8 +4.6 99 +4 +4 1009.1 939.1 +4.8
00 20.09 З 1 50 км 10/10 1000 м
[Sc]
+4.2 -1.0 69 +3 +3 1011.0 940.7 +4.2
03 20.09 СЗ 2 50 км 10/0
[Ac As]
+6.0 -2.9 53 +4 +5 1010.5 940.6
06 20.09 СЗ 1 50 км 10/0
[Ac As]
+6.6 -2.8 51 +6 +7 1009.2 939.5
09 20.09 СЗ 1 50 км 10/0
[Ac As]
+5.1 -1.1 64 +4 +4 1011.0 941.0 +6.0
12 20.09 штиль 0 50 км 10/6 1000 м
[Sc As op]
+3.0 -0.8 76 +2 +2 1011.2 940.5
15 20.09 штиль 0 50 км 10/4 1000 м
[Sc As op]
+2.2 -0.8 81 +1 +1 1012.7 941.8
18 20.09 СЗ 1 50 км 10/3 1000 м
[Sc As op]
+2.2 -0.8 81 +1 +1 1012.9 942.0
21 20.09 СЗ 1 50 км 10/0
[Ac As]
+2.1 -1.8 75 +1 +1 1013.1 942.2 +2.1
00 21.09 штиль 0 50 км 10/6 1000 м
[Sc As trans]
+3.4 -1.3 71 +3 +3 1013.7 943.0
03 21.09 СЗ 1 50 км 8/8 1000 м
[Sc]
+6.2 -1.6 57 +6 +7 1012.2 942.4
06 21.09 Ю 1 50 км 10/6 1000 м
[Sc Cs]
+6.9 -3.1 49 +7 +7 1012.3 942.5
09 21.09 штиль 0 50 км 10/8 1000 м
[Sc As op]
+4.9 -0.1 70 +4 +4 1013.3 943.0 +7.2
12 21.09 штиль 0 20 км слабый дождь 10/10 1000 м
[Sc]
+4.2 +1.1 80 +3 +3 1014.2 943.7
15 21.09 Ю 1 50 км {дождь} 9/9 1000 м
[Sc]
+2.4 +2.4 100 0 0 1014.5 943.5
18 21.09 штиль 0 50 км {дождь} 10/10 1000 м
[Sc]
+1.8 +1.8 100 0 0 1014.9 943.7
21 21.09 штиль 0 50 км 10/10 1000 м
[Sc]
+1.2 +1.2 100 -0 -0 1015.2 943.9 +1.2 0.4
00 22.09 Ю 2 50 км 10/10 1000 м
[Sc]
+4.1 -3.8 56 +2 +2 1014.6 944.0
03 22.09 СЗ 2 50 км 6/6 1000 м
[Sc]
+7.0 -4.0 45 +5 +7 1013.6 943.7
06 22.09 СВ 2 50 км 10/9 600 м
[Cb cap Ci]
+6.2 -3.7 49 +4 +5 1011.8 942.0
09 22.09 СВ 2 50 км 10/10 600 м
[Cb cap]
+3.0 -0.8 76 0 0 1012.8 942.1 +7.5
12 22.09 штиль 0 20 км слабый ливневой снег 10/10 600 м
[Cb cap]
+0.4 -0.4 94 -1 -1 1014.5 943.0
15 22.09 штиль 0 20 км слабый ливневой снег 10/10 600 м
[Cb cap]
-0.6 -0.7 99 -2 -2 1013.8 942.1
18 22.09 штиль 0 20 км слабый ливневой снег 10/10
[Cb cap]
-2.0 -2.3 98 -3 -3 1013.0 941.0
21 22.09 штиль 0 50 км {ливн. осадки} 10/10 600 м
[Cb cap]
-3.4 -3.8 97 -5 -5 1012.5 940.8 -3.4 0.6 3
00 23.09 штиль 0 50 км {ливн. осадки} 10/8 1000 м
[Sc As trans]
0.0 -0.3 98 -1 -1 1011.4 940.0
03 23.09 С 1 20 км слабый ливневой снег 9/9 600 м
[Cb cap]
+1.2 -0.5 88 -1 -0 1010.5 939.5
06 23.09 штиль 0 50 км {ливн. осадки} 10/10 600 м
[Cb cap]
+1.5 -0.1 89 0 0 1009.7 938.8
09 23.09 штиль 0 50 км 10/8 600 м
[Cb cap As trans]
+0.8 -0.6 90 -0 -0 1010.3 939.3 +1.8 0.3
12 23.09 штиль 0 50 км 10/10 1000 м
[Sc]
-0.5 -0.5 100 -2 -2 1011.7 940.2
15 23.09 штиль 0 50 км 10/10 1000 м
[Sc]
-2.2 -2.5 98 -4 -4 1012.3 940.4
18 23.09 штиль 0 50 км 10/10 1000 м
[Sc]
-3.9 -4.1 99 -5 -5 1013.3 940.7
21 23.09 штиль 0 50 км 10/10 1000 м
[Sc]
-1.2 -1.4 99 -3 -3 1013.3 941.5 -3.9
00 24.09 штиль 0 50 км 10/10 1000 м
[Sc]
+0.2 -1.8 86 -1 -1 1014.1 942.6
03 24.09 штиль 0 50 км 9/9 1000 м
[Sc]
+1.0 -6.2 59 0 +1 1014.0 942.7
06 24.09 штиль 0 50 км 10/10 1000 м
[Sc]
+2.9 -4.0 60 +2 +2 1013.4 942.6
09 24.09 штиль 0 50 км 10/10 1000 м
[Sc]
+2.0 -2.0 75 +1 +1 1013.3 942.3 +3.3
12 24.09 Ю 2 50 км 1/1 1000 м
[Sc]
-2.0 -4.5 83 -6 -6 1015.7 943.5
15 24.09 штиль 0 50 км 3/0
[Ci fib]
-3.4 -5.2 87 -15 -15 1015.9 943.5
18 24.09 штиль 0 50 км ясно -4.6 -5.6 93 -6 -6 1015.8 943.0
21 24.09 Ю 5
{10}
50 км 10/3 1000 м
[Sc As trans]
-3.6 -7.6 74 -10 -10 1015.2 942.5 -4.6
00 25.09 Ю 5
{11}
10 км снег 10/0
[As op]
-3.0 -3.4 97 -10 -10 1015.4 943.0
03 25.09 Ю 7
{11}
20 км слабый снег 10/0
[As op]
-1.1 -1.2 99 -9 -9 1014.0 942.2
06 25.09 Ю 7
{11}
20 км слабый снег 10/0
[As op]
+0.2 0.0 99 -7 -7 1013.3 941.9
09 25.09 Ю 7 20 км слабый снег 10/8 1000 м
[Sc As op]
+0.8 +0.3 96 -6 -6 1014.1 942.8 +0.8 1
12 25.09 Ю 6
{10}
20 км слабый снег 10/8 1000 м
[Sc As op]
+0.6 +0.6 100 -6 -6 1014.0 942.7
15 25.09 Ю 4 50 км {снег} 10/5 1000 м
[Sc As op]
+0.6 +0.6 100 -5 -5 1014.0 942.7
18 25.09 Ю 5 20 км слабый снег 10/8 1000 м
[Sc As op]
+0.5 +0.5 100 -6 -6 1013.5 942.1
21 25.09 Ю 4 20 км слабый снег 10/0
[As op]
+0.5 +0.5 100 -5 -5 1013.5 942.1 -0.5 0.5
00 26.09 Ю 5
{10}
20 км слабый дождь {снег} 10/8 1000 м
[Sc As op]
+1.3 +0.8 96 -5 -5 1012.1 941.0
03 26.09 Ю 4 50 км {дождь} 10/10 1000 м
[Sc]
+1.8 +1.5 98 -3 -3 1011.1 940.2
06 26.09 Ю 4 50 км {дождь} 10/8 1000 м
[Sc As op]
+2.8 +1.0 88 -2 -2 1009.8 939.3

 

Местоположение метеостанции Юрты (Якутия, Россия): широта 64.05 долгота 141.80 высота над уровнем моря 590 м.

В архиве по умолчанию представлена погода в Юртах за последнюю неделю. Архивные данные за месяц целиком и за предыдущие месяцы, начиная с января 2011 года, Вы можете получить, выбрав интересующий диапазон дат из раскрывающегося списка и нажав кнопку "Ввод!".


*Определитесь, кто Вы:
робот инопланетянин человек

Внимание! Время в таблицах - всемирное. Для получения местного времени необходимо прибавить поправку, которая в Юртах равна 10 ч.

Смотрите также архив погоды в соседних городах и на ближайших метеорологических станциях:

Погода в Агаякане (Якутия, Россия) (80 км)
Погода в Усть-Нере (Якутия, Россия) (82 км)
Погода в Оймяконе (Якутия, Россия) (110 км)
Погода в Восточной (Якутия, Россия) (142 км)
Погода в Делянкире (Якутия, Россия) (187 км)
Погода в Усть-Моме (Якутия, Россия) (275 км)
Погода в Теплом Ключе (Якутия, Россия) (286 км)
Погода в Томпо (Якутия, Россия) (293 км)
Погода в Иэме (Якутия, Россия) (317 км)
Погода в Сусумане (Магаданская область, Россия) (344 км)

Пояснения к столбцам:

Ветер - указаны скорость ветра в м/с - средняя за 10 мин, порывы в срок и между сроками (в фигурных скобках) и направление, откуда дует ветер: С - северный, СВ - северо-восточный, В - восточный, ЮВ - юго-восточный, Ю - южный, ЮЗ - юго-западный, З - западный, СЗ - северо-западный.
Видимость - горизонтальная дальность видимости в метрах или километрах. При видимости от 1 до 10 км при отсутствии осадков обычно наблюдается дымка, при ухудшении видимости до 1 км и менее - туман. В сухую погоду видимость может ухудшаться дымом, пылью или мглою.
Явления - указаны атмосферные явления, наблюдавшиеся в срок или в последний час перед сроком; фигурными скобками обозначены явления, наблюдавшиеся между сроками (за 1-3 часа до срока); квадратными скобками обозначены град или гололедные отложения с указанием их диаметра в мм.
Облачность - указаны через наклонную черту общая и нижняя облачность в баллах и высота нижней границы облаков в метрах; квадратными скобками обозначены формы облаков: Ci - перистые, Cs - перисто-слоистые, Cc - перисто-кучевые, Ac - высококучевые, As - высокослоистые, Sc - слоисто-кучевые, Ns - слоисто-дождевые, Cu - кучевые, Cb - кучево-дождевые. Подробнее классификацию облаков см. в Атласе облаков (PDF).
T - Температура воздуха - температура, измеренная на высоте 2 м над землей.
Td - Температура точки росы - температура, при понижении до которой содержащийся в воздухе водяной пар достигнет насыщения.
f - Относительная влажность воздуха - влажноcть воздуха, измеренная на высоте 2 м над землей.
Te - Эффективная температура - температура, которую ощущает одетый по сезону человек в тени. Характеристика душности погоды. При расчете учитывается влияние влажности воздуха и скорости ветра на теплоощущения человека.
Tes - Эффективная температура на солнце - температура, которую ощущает человек, с поправкой на солнечный нагрев. Характеристика знойности погоды. Зависит от высоты солнца над горизонтом, облачности и скорости ветра. Ночью, в пасмурную погоду, а также при ветре 12 м/с и более поправка равна нулю.
P - Атмосферное давление - приведенное к уровню моря атмосферное давление.
Po - Атмосферное давление - измеренное на уровне метеостанции атмосферное давление.
Tmin - Минимальная температура - минимум температуры воздуха на высоте 2 м над землей.
Tmax - Максимальная температура - максимум температуры воздуха на высоте 2 м над землей.
R - Количество осадков - Количество выпавших осадков за период времени, мм. При наведении курсора мыши на число - период времени, за который выпало указанное количество осадков.
R24 - Количество осадков - Количество выпавших осадков за 24 часа, мм.
S - Снежный покров - Высота снежного покрова, см. При наведении курсора мыши на число - состояние снежного покрова и степень покрытия местности в баллах.